Change the Weather History Date:

Thursday, July 24, 2014

  Actual Average Record
Temperature  
Mean Temperature 68 °F -  
Max Temperature 78 °F 79 °F 91 °F (1952)
Min Temperature 57 °F 61 °F 48 °F (1997)
Cooling Degree Days 4    
Growing Degree Days 18 (Base 50)    
Moisture  
Dew Point 67 °F    
Average Humidity 89    
Maximum Humidity 100    
Minimum Humidity 76    
Precipitation  
Precipitation 0.02 in - - ()
Sea Level Pressure  
Sea Level Pressure 29.81 in    
Wind  
Wind Speed 7 mph (North)    
Max Wind Speed 14 mph    
Max Gust Speed 21 mph    
Visibility 10 miles    
Events Rain    
Averages and records for this station are not official NWS values.
T = Trace of Precipitation, MM = Missing Value Source: NWS Daily Summary

Daily Weather History Graph

Daily Weather History Graph

Search for Another Location

Airport or City:

Trip Planner

Search our weather history database for the weather conditions in past years. The results will help you decide how hot, cold, wet, or windy it might be!

Date:

Astronomy

Jul. 24, 2014 Rise Set
Actual Time 5:29 AM EDT 8:07 PM EDT
Civil Twilight 4:57 AM EDT 8:39 PM EDT
Nautical Twilight 4:17 AM EDT 9:19 PM EDT
Astronomical Twilight 3:32 AM EDT 10:04 PM EDT
Moon 3:35 AM EDT (7/24) 6:19 PM EDT (7/24)
Length of Visible Light 15h 41m
Length of Day
14h 37m
Waning Crescent, 5% of the Moon is Illuminated
Jul 24
Waning Crescent
Jul 26
New
Aug 3
First Quarter
Aug 10
Full
Aug 17
Last Quarter

Hourly Weather History & Observations

Time (EDT) Temp. Dew Point Humidity Pressure Visibility Wind Dir Wind Speed Gust Speed Precip Events Conditions
12:53 AM 72.0 °F 71.1 °F 97% 29.79 in 10.0 mi SW 6.9 mph - N/A   Overcast
1:34 AM 71.1 °F 70.0 °F 96% 29.76 in 6.0 mi SSW 9.2 mph - N/A   Overcast
2:32 AM 71.1 °F 70.0 °F 96% 29.76 in 10.0 mi SW 6.9 mph - N/A   Overcast
2:53 AM 71.1 °F 70.0 °F 96% 29.76 in 10.0 mi WSW 6.9 mph - N/A   Scattered Clouds
3:53 AM 70.0 °F 69.1 °F 97% 29.76 in 10.0 mi West 6.9 mph - N/A   Partly Cloudy
4:53 AM 69.1 °F 68.0 °F 96% 29.77 in 10.0 mi West 4.6 mph - N/A   Partly Cloudy
5:53 AM 69.1 °F 68.0 °F 96% 29.77 in 9.0 mi West 4.6 mph - 0.00 in   Partly Cloudy
6:53 AM 70.0 °F 68.0 °F 93% 29.76 in 10.0 mi WNW 3.5 mph - N/A   Scattered Clouds
7:53 AM 73.0 °F 69.1 °F 87% 29.76 in 10.0 mi NNW 10.4 mph - N/A   Clear
8:53 AM 75.9 °F 70.0 °F 82% 29.78 in 10.0 mi NNE 6.9 mph - N/A   Partly Cloudy
9:39 AM 78.1 °F 71.1 °F 79% 29.79 in 10.0 mi ENE 6.9 mph - N/A   Mostly Cloudy
9:53 AM 78.1 °F 70.0 °F 76% 29.79 in 10.0 mi ENE 8.1 mph - N/A   Mostly Cloudy
10:00 AM 77.0 °F 70.0 °F 79% 29.80 in 10.0 mi NE 4.6 mph - N/A   Overcast
10:49 AM 75.2 °F 69.8 °F 83% 29.81 in 10.0 mi NE 9.2 mph - N/A   Overcast
10:53 AM 75.0 °F 69.1 °F 82% 29.81 in 10.0 mi ENE 10.4 mph - N/A   Overcast
11:53 AM 75.0 °F 68.0 °F 79% 29.81 in 10.0 mi North 13.8 mph - N/A   Overcast
12:33 PM 73.0 °F 68.0 °F 84% 29.81 in 10.0 mi North 13.8 mph - N/A   Overcast
12:53 PM 71.1 °F 66.0 °F 84% 29.81 in 10.0 mi North 12.7 mph - N/A   Overcast
1:53 PM 69.1 °F 64.9 °F 87% 29.81 in 10.0 mi NNE 10.4 mph - N/A   Overcast
2:03 PM 69.1 °F 64.9 °F 87% 29.81 in 9.0 mi NNE 11.5 mph 20.7 mph 0.00 in Rain Light Rain
2:53 PM 69.1 °F 64.9 °F 87% 29.81 in 10.0 mi NNE 11.5 mph - 0.00 in   Overcast
3:53 PM 69.1 °F 64.9 °F 87% 29.82 in 10.0 mi NNE 10.4 mph - 0.00 in Rain Light Rain
4:53 PM 68.0 °F 64.9 °F 90% 29.82 in 10.0 mi NNE 8.1 mph - 0.02 in Rain Light Rain
5:53 PM 68.0 °F 64.9 °F 90% 29.83 in 10.0 mi NE 6.9 mph - 0.00 in   Overcast
6:53 PM 66.9 °F 64.9 °F 93% 29.82 in 10.0 mi NE 6.9 mph - N/A   Clear
7:53 PM 66.9 °F 64.0 °F 90% 29.83 in 10.0 mi NE 5.8 mph - N/A   Clear
8:53 PM 63.0 °F 62.1 °F 97% 29.86 in 10.0 mi North 3.5 mph - N/A   Clear
9:53 PM 60.1 °F 59.0 °F 96% 29.87 in 10.0 mi Calm Calm - N/A   Mostly Cloudy
10:53 PM 59.0 °F 59.0 °F 100% 29.89 in 10.0 mi Calm Calm - N/A   Mostly Cloudy
11:53 PM 57.9 °F 57.0 °F 97% 29.89 in 6.0 mi NW 3.5 mph - N/A   Scattered Clouds